Location: ??
(35.4824°N, 139.4679°E)
Time: 14:35:51
(UTC+00:00)

Daily predictions for brighter satellites

Satellite Brightness Start Highest point End
(mag) Time Altitude Azimuth Time Altitude Azimuth Time Altitude Azimuth
ATLAS 3B R/B 3.2 18:06:52 53° ENE 18:06:52 53° ENE 18:12:08 10° NE
ADEOS Rocket 4.1 18:06:35 10° SE 18:11:31 36° ENE 18:16:33 10° N
CZ-2C R/B 4.5 18:12:27 10° NNE 18:14:12 21° NE 18:14:12 21° NE
Cosmos 1833 Rocket 3.9 18:34:21 31° N 18:34:21 31° N 18:37:15 10° NNE
Cosmos 2251 Rocket 4.1 18:36:21 47° SE 18:37:24 56° ESE 18:42:38 10° NNE
Cosmos 44 Rocket 4.3 18:45:43 39° SSE 18:45:43 39° SSE 18:48:58 10° SSE
Cosmos 1656 4.3 18:51:09 42° S 18:51:09 42° S 18:54:53 10° S
Cosmos 2082 Rocket 2.0 18:57:43 72° WSW 18:58:05 76° WNW 19:03:44 10° NNE
Cosmos 2369 3.9 18:56:31 20° NNW 19:00:32 67° ENE 19:06:08 10° SSE
ALOS 3.0 18:57:28 10° NNE 19:02:02 53° E 19:06:35 10° S
DELTA 2 R/B (1) 4.1 19:02:37 43° SSW 19:02:37 43° SSW 19:07:40 10° SE
Meteor 1-24 Rocket 3.9 18:57:14 10° S 19:02:48 73° E 19:08:35 10° NNE
Cosmos 1092 Rocket 4.1 18:59:06 10° S 19:05:12 73° E 19:11:25 10° N
CENTAUR R/B 4.2 19:08:28 17° NNW 19:08:28 17° NNW 19:11:58 10° N
Nadezhda 4 Rocket 3.8 19:01:40 10° SSW 19:07:41 63° W 19:13:46 10° N
ATLAS CENTAUR R/B 3.5 19:06:06 10° SSE 19:09:22 24° ESE 19:12:32 10° ENE
Cosmos 1300 3.5 19:07:06 10° N 19:10:49 49° E 19:14:30 10° SSE
Cosmos 1400 Rocket 4.1 19:09:31 10° N 19:13:14 40° ENE 19:16:53 10° SSE
ATLAS CENTAUR Rocket 4.0 19:15:38 13° SSW 19:15:38 13° SSW 19:16:43 10° S
CZ-3 R/B 3.6 19:00:01 27° WSW 19:16:26 65° S 19:24:35 10° ESE
Cosmos 1697 Rocket 2.6 19:19:19 25° NNW 19:22:39 65° WSW 19:28:14 10° S
CZ-4B R/B 4.0 19:23:31 10° NNE 19:27:36 75° E 19:31:29 10° S
FENGYUN 3A 3.5 19:23:28 10° N 19:28:55 79° WNW 19:34:20 10° SSW
GOES 2 Rocket 4.5 19:26:45 27° SW 19:29:10 43° S 19:35:32 10° ESE
Cosmos 1627 Rocket 4.5 19:24:38 10° S 19:31:02 87° W 19:37:27 10° N
Cosmos 2228 2.9 19:27:15 10° NNW 19:31:35 63° W 19:35:54 10° S
ADEOS 3.5 19:27:16 10° N 19:32:28 69° WNW 19:37:38 10° SSW
Cosmos 1726 Rocket 3.5 19:28:20 10° N 19:32:49 86° W 19:37:16 10° S
Gblst 52 Del rocket 4.1 19:32:27 24° SW 19:35:56 81° NW 19:42:01 10° NE
Intercosmos 24 3.9 19:39:28 35° NW 19:40:26 44° W 19:44:02 10° SSW
Meteor 2-5 Rocket 4.2 19:35:53 10° SW 19:41:07 38° WNW 19:46:30 10° N
Aureole 3 4.2 19:36:48 10° N 19:41:30 77° E 19:47:31 10° S
Cosmos 1484 Rocket 3.0 19:40:09 10° N 19:43:47 43° WNW 19:47:20 10° SSW
Cosmos 1992 Rocket 4.0 19:40:57 10° NNW 19:46:03 56° WSW 19:51:07 10° S
Cosmos 1980 Rocket 2.1 19:40:38 10° NNW 19:46:14 81° WSW 19:51:50 10° SSE
Cosmos 1606 Rocket 3.9 19:45:03 10° NNW 19:49:16 41° W 19:53:26 10° SSW
Cosmos 1428 Rocket 4.4 19:44:46 10° SSW 19:50:57 66° W 19:57:07 10° N
SAR-Lupe-4 3.4 19:49:09 10° SSE 19:52:42 85° WSW 19:56:18 10° NNW
H-2A R/B 4.0 19:50:59 10° SW 19:52:02 14° SW 19:52:02 14° SW
CZ-4B R/B 1.7 19:51:19 10° S 19:54:38 44° W 19:57:56 10° NNW
CZ-2C R/B 4.1 19:51:53 10° NNW 19:53:34 15° NW 19:53:34 15° NW
COSMO-SKYMED 1 2.9 19:51:42 10° SSE 19:56:01 70° ENE 20:00:20 10° N
ATLAS 3B R/B 3.6 19:54:11 20° WNW 19:56:44 25° NW 20:02:03 10° N
ADEOS Rocket 3.7 19:52:49 10° SSW 19:57:09 24° W 20:01:32 10° NW
Cosmos 614 Rocket 4.1 19:52:20 10° SW 19:57:20 50° WNW 20:02:19 10° N
Cosmos 1455 4.1 19:54:31 10° NNE 19:58:04 33° E 20:01:35 10° SE
ERS-2 3.0 19:57:48 10° SSW 20:00:58 28° W 20:03:40 13° NW
SJ-12 3.9 19:57:57 10° N 20:02:01 63° WNW 20:06:02 10° SSW
Cosmos 1553 Rocket 4.2 19:56:29 10° N 20:02:34 72° E 20:08:36 10° SSE
Meteor 2-10 Rocket 3.8 19:58:27 10° N 20:03:29 69° E 20:08:37 10° SSE
Cosmos 2026 Rocket 4.2 19:58:16 10° SSW 20:04:23 49° W 20:10:33 10° N
SL-19 R/B 4.3 20:03:52 10° N 20:06:27 31° WNW 20:09:10 10° SW
H-2A R/B 4.2 20:04:07 10° NNE 20:08:08 38° E 20:11:58 10° SSE
Meteor 1-31 Rocket 3.5 20:05:37 10° N 20:09:04 30° WNW 20:12:32 10° SW
SAR-Lupe-1 4.2 20:06:59 10° S 20:10:30 51° W 20:14:04 10° NNW
Cosmos 1703 4.2 20:09:17 10° S 20:13:02 51° E 20:16:49 10° NNE
Abrixas rocket 1.9 20:14:09 13° NW 20:16:34 71° NE 20:19:22 10° ESE
Cosmos 2322 Rocket 3.5 20:14:01 10° N 20:19:22 41° ENE 20:24:38 10° SE
Cosmos 2278 4.2 20:14:43 10° NW 20:19:54 38° WSW 20:25:02 10° S
Cosmos 1023 Rocket 4.5 20:16:13 10° SSW 20:21:12 58° WNW 20:26:13 10° N
PSLV R/B 4.0 20:22:25 10° S 20:26:32 58° W 20:30:43 10° NNW
SL-27 R/B 2.6 20:23:42 10° SSW 20:27:12 54° WNW 20:30:46 10° N
Cosmos 2058 Rocket 3.8 20:23:27 10° NNW 20:27:25 32° W 20:31:22 10° SSW
BREEZE-M DEB (TANK) 3.0 20:27:08 10° W 20:28:51 18° SW 20:30:29 10° S
PSLV R/B 3.9 20:25:33 10° N 20:29:41 85° WNW 20:33:45 10° SSW
CZ-4B R/B 3.7 20:28:18 10° N 20:32:01 32° WNW 20:35:53 10° SW
Cosmos 1190 Rocket 4.3 20:29:40 10° SW 20:34:40 45° WNW 20:39:41 10° N
ALOS 3.9 20:36:38 10° NW 20:38:57 14° WNW 20:41:16 10° W
CZ-4B R/B 4.3 20:35:25 10° NNE 20:40:34 49° E 20:45:39 10° S
